Location: Newark
(7.0858°N, 171.3717°E)
Time: 15:42:06
(UTC+00:00)

Courier 1B Rocket - Pass Details

Date: 27 November 2020
Orbit: 920 x 1202 km, 28.2° (Epoch: 20 January)

Event Time Altitude Azimuth Distance (km) Brightness Sun altitude
Rises 04:48:06 0° 258° (WSW) 3,589 9.4 18.9°
Reaches altitude 10° 04:53:07 10° 224° (SW) 2,612 8.8 17.8°
Maximum altitude 04:54:48 11° 208° (SSW) 2,528 8.2 17.4°
Drops below altitude 10° 04:56:30 10° 192° (SSW) 2,603 7.9 17.1°
Sets 05:01:29 0° 158° (SSE) 3,553 8.0 15.9°
